contact: severine.martini@mio.osupytheas.fr, dominique.lefevre@mio.osupytheas.fr
Project:EMSO Ligure-ouest http://www.emso-fr.org/EMSO-France
Sensor Microcat Sea-Bird SBE37 SMP,  Serial 57510 
DOI : "https://doi.org/10.17882/97948" 
Title:EMSO Ligure Ouest : Data Bathybot capteur Microcat - deploiement 2023-04-28
Datetime,Profondeur,Latitude,Longitude,Temperature,Conductivite,Pression,Salinite
time,m,degree_north,degree_east,degree_C,S/m,db,PSU 
2023-12-17T00:00:49,2420,42.8014,5.9826,13.2996,4.59916,2453.695,38.4859
2023-12-17T00:03:49,2420,42.8014,5.9826,13.2993,4.59916,2453.717,38.4862
2023-12-17T00:06:49,2420,42.8014,5.9826,13.2991,4.59915,2453.672,38.4863
2023-12-17T00:09:49,2420,42.8014,5.9826,13.2993,4.59920,2453.695,38.4865
2023-12-17T00:12:49,2420,42.8014,5.9826,13.2998,4.59918,2453.695,38.4860
2023-12-17T00:15:49,2420,42.8014,5.9826,13.2995,4.59917,2453.657,38.4862
2023-12-17T00:18:49,2420,42.8014,5.9826,13.2992,4.59917,2453.732,38.4864
2023-12-17T00:21:49,2420,42.8014,5.9826,13.2991,4.59917,2453.672,38.4865
2023-12-17T00:24:49,2420,42.8014,5.9826,13.2993,4.59919,2453.695,38.4865
2023-12-17T00:27:50,2420,42.8014,5.9826,13.2993,4.59917,2453.672,38.4863
2023-12-17T00:30:49,2420,42.8014,5.9826,13.2993,4.59916,2453.687,38.4862
2023-12-17T00:33:49,2420,42.8014,5.9826,13.2996,4.59917,2453.672,38.4860
2023-12-17T00:36:49,2420,42.8014,5.9826,13.2994,4.59916,2453.717,38.4861
2023-12-17T00:39:49,2420,42.8014,5.9826,13.2996,4.59916,2453.695,38.4860
2023-12-17T00:42:49,2420,42.8014,5.9826,13.2993,4.59917,2453.680,38.4863
2023-12-17T00:45:49,2420,42.8014,5.9826,13.2993,4.59917,2453.695,38.4863
2023-12-17T00:48:49,2420,42.8014,5.9826,13.2992,4.59917,2453.672,38.4864
2023-12-17T00:51:49,2420,42.8014,5.9826,13.2994,4.59920,2453.672,38.4865
2023-12-17T00:54:49,2420,42.8014,5.9826,13.2993,4.59919,2453.695,38.4865
2023-12-17T00:57:49,2420,42.8014,5.9826,13.2992,4.59919,2453.657,38.4866
2023-12-17T01:00:49,2420,42.8014,5.9826,13.2990,4.59917,2453.672,38.4866
2023-12-17T01:03:49,2420,42.8014,5.9826,13.2995,4.59916,2453.649,38.4860
2023-12-17T01:06:49,2420,42.8014,5.9826,13.2991,4.59918,2453.695,38.4866
2023-12-17T01:09:49,2420,42.8014,5.9826,13.2996,4.59921,2453.672,38.4864
2023-12-17T01:12:49,2420,42.8014,5.9826,13.2996,4.59922,2453.649,38.4865
2023-12-17T01:15:49,2420,42.8014,5.9826,13.2993,4.59917,2453.672,38.4863
2023-12-17T01:18:49,2420,42.8014,5.9826,13.2991,4.59919,2453.709,38.4867
2023-12-17T01:21:49,2420,42.8014,5.9826,13.2992,4.59918,2453.672,38.4865
2023-12-17T01:24:49,2420,42.8014,5.9826,13.2992,4.59915,2453.672,38.4862
2023-12-17T01:27:49,2420,42.8014,5.9826,13.2998,4.59917,2453.695,38.4858
2023-12-17T01:30:49,2420,42.8014,5.9826,13.2993,4.59918,2453.695,38.4864
2023-12-17T01:33:49,2420,42.8014,5.9826,13.3001,4.59920,2453.672,38.4857
2023-12-17T01:36:49,2420,42.8014,5.9826,13.2993,4.59923,2453.672,38.4869
2023-12-17T01:39:49,2420,42.8014,5.9826,13.2997,4.59918,2453.672,38.4861
2023-12-17T01:42:49,2420,42.8014,5.9826,13.2994,4.59924,2453.657,38.4869
2023-12-17T01:45:49,2420,42.8014,5.9826,13.2995,4.59919,2453.672,38.4863
2023-12-17T01:48:49,2420,42.8014,5.9826,13.2993,4.59920,2453.649,38.4866
2023-12-17T01:51:49,2420,42.8014,5.9826,13.2998,4.59918,2453.695,38.4860
2023-12-17T01:54:49,2420,42.8014,5.9826,13.2996,4.59922,2453.695,38.4865
2023-12-17T01:57:49,2420,42.8014,5.9826,13.2994,4.59915,2453.672,38.4860
2023-12-17T02:00:49,2420,42.8014,5.9826,13.2993,4.59915,2453.649,38.4861
2023-12-17T02:03:49,2420,42.8014,5.9826,13.2995,4.59920,2453.664,38.4864
2023-12-17T02:06:49,2420,42.8014,5.9826,13.2993,4.59916,2453.695,38.4862
2023-12-17T02:09:49,2420,42.8014,5.9826,13.2996,4.59921,2453.695,38.4864
2023-12-17T02:12:49,2420,42.8014,5.9826,13.2996,4.59917,2453.649,38.4861
2023-12-17T02:15:49,2420,42.8014,5.9826,13.2993,4.59921,2453.672,38.4867
2023-12-17T02:18:49,2420,42.8014,5.9826,13.2994,4.59917,2453.672,38.4863
2023-12-17T02:21:49,2420,42.8014,5.9826,13.2996,4.59920,2453.672,38.4863
2023-12-17T02:24:49,2420,42.8014,5.9826,13.2993,4.59917,2453.657,38.4864
2023-12-17T02:27:49,2420,42.8014,5.9826,13.2991,4.59915,2453.635,38.4863
2023-12-17T02:30:49,2420,42.8014,5.9826,13.2997,4.59934,2453.672,38.4876
2023-12-17T02:33:49,2420,42.8014,5.9826,13.2998,4.59932,2453.649,38.4873
2023-12-17T02:36:49,2420,42.8014,5.9826,13.2989,4.59918,2453.672,38.4868
2023-12-17T02:39:49,2420,42.8014,5.9826,13.2993,4.59917,2453.649,38.4863
2023-12-17T02:42:49,2420,42.8014,5.9826,13.2990,4.59913,2453.672,38.4862
2023-12-17T02:45:49,2420,42.8014,5.9826,13.2999,4.59919,2453.649,38.4859
2023-12-17T02:48:49,2420,42.8014,5.9826,13.2989,4.59918,2453.649,38.4868
2023-12-17T02:51:49,2420,42.8014,5.9826,13.2996,4.59916,2453.672,38.4860
2023-12-17T02:54:49,2420,42.8014,5.9826,13.2997,4.59922,2453.695,38.4864
2023-12-17T02:57:49,2420,42.8014,5.9826,13.2994,4.59919,2453.672,38.4864
2023-12-17T03:00:49,2420,42.8014,5.9826,13.2990,4.59915,2453.649,38.4865
2023-12-17T03:03:49,2420,42.8014,5.9826,13.2989,4.59915,2453.627,38.4865
2023-12-17T03:06:49,2420,42.8014,5.9826,13.2990,4.59915,2453.627,38.4865
2023-12-17T03:09:50,2420,42.8014,5.9826,13.2993,4.59914,2453.567,38.4860
2023-12-17T03:12:49,2420,42.8014,5.9826,13.2991,4.59911,2453.604,38.4860
2023-12-17T03:15:49,2420,42.8014,5.9826,13.2989,4.59917,2453.590,38.4867
2023-12-17T03:18:49,2420,42.8014,5.9826,13.2993,4.59917,2453.672,38.4864
2023-12-17T03:21:49,2420,42.8014,5.9826,13.2993,4.59918,2453.695,38.4864
2023-12-17T03:24:49,2420,42.8014,5.9826,13.2991,4.59926,2453.672,38.4874
2023-12-17T03:27:49,2420,42.8014,5.9826,13.2991,4.59920,2453.672,38.4867
2023-12-17T03:30:49,2420,42.8014,5.9826,13.2991,4.59911,2453.649,38.4860
2023-12-17T03:33:49,2420,42.8014,5.9826,13.2992,4.59923,2453.672,38.4869
2023-12-17T03:36:49,2420,42.8014,5.9826,13.2991,4.59915,2453.649,38.4863
2023-12-17T03:39:49,2420,42.8014,5.9826,13.2993,4.59912,2453.649,38.4859
2023-12-17T03:42:49,2420,42.8014,5.9826,13.2992,4.59912,2453.649,38.4860
2023-12-17T03:45:49,2420,42.8014,5.9826,13.2989,4.59911,2453.649,38.4862
2023-12-17T03:48:49,2420,42.8014,5.9826,13.2988,4.59915,2453.627,38.4867
2023-12-17T03:51:49,2420,42.8014,5.9826,13.2992,4.59921,2453.649,38.4868
2023-12-17T03:54:49,2420,42.8014,5.9826,13.2990,4.59914,2453.649,38.4863
2023-12-17T03:57:49,2420,42.8014,5.9826,13.2991,4.59912,2453.664,38.4861
2023-12-17T04:00:49,2420,42.8014,5.9826,13.2991,4.59911,2453.664,38.4860
2023-12-17T04:03:49,2420,42.8014,5.9826,13.2995,4.59927,2453.635,38.4871
2023-12-17T04:06:49,2420,42.8014,5.9826,13.2989,4.59910,2453.672,38.4860
2023-12-17T04:09:49,2420,42.8014,5.9826,13.2988,4.59913,2453.649,38.4864
2023-12-17T04:12:49,2420,42.8014,5.9826,13.2993,4.59914,2453.627,38.4860
2023-12-17T04:15:49,2420,42.8014,5.9826,13.2992,4.59911,2453.649,38.4859
2023-12-17T04:18:49,2420,42.8014,5.9826,13.2990,4.59910,2453.627,38.4860
2023-12-17T04:21:49,2420,42.8014,5.9826,13.2988,4.59911,2453.627,38.4862
2023-12-17T04:24:49,2420,42.8014,5.9826,13.2990,4.59913,2453.627,38.4862
2023-12-17T04:27:49,2420,42.8014,5.9826,13.2989,4.59909,2453.672,38.4860
2023-12-17T04:30:49,2420,42.8014,5.9826,13.3004,4.59918,2453.672,38.4854
2023-12-17T04:33:49,2420,42.8014,5.9826,13.2987,4.59911,2453.664,38.4863
2023-12-17T04:36:49,2420,42.8014,5.9826,13.3001,4.59913,2453.627,38.4851
2023-12-17T04:39:49,2420,42.8014,5.9826,13.2993,4.59915,2453.649,38.4862
2023-12-17T04:42:49,2420,42.8014,5.9826,13.2991,4.59914,2453.657,38.4862
2023-12-17T04:45:49,2420,42.8014,5.9826,13.2989,4.59911,2453.627,38.4862
2023-12-17T04:48:49,2420,42.8014,5.9826,13.2985,4.59909,2453.604,38.4864
2023-12-17T04:51:49,2420,42.8014,5.9826,13.2991,4.59909,2453.649,38.4858
2023-12-17T04:54:49,2420,42.8014,5.9826,13.2992,4.59918,2453.672,38.4865
2023-12-17T04:57:49,2420,42.8014,5.9826,13.2991,4.59915,2453.649,38.4863
2023-12-17T05:00:49,2420,42.8014,5.9826,13.2986,4.59910,2453.627,38.4864
2023-12-17T05:03:49,2420,42.8014,5.9826,13.2991,4.59911,2453.672,38.4860
2023-12-17T05:06:49,2420,42.8014,5.9826,13.2989,4.59914,2453.649,38.4864
2023-12-17T05:09:49,2420,42.8014,5.9826,13.2988,4.59910,2453.649,38.4861
2023-12-17T05:12:49,2420,42.8014,5.9826,13.2990,4.59915,2453.649,38.4864
2023-12-17T05:15:49,2420,42.8014,5.9826,13.2989,4.59924,2453.657,38.4874
2023-12-17T05:18:49,2420,42.8014,5.9826,13.2992,4.59914,2453.635,38.4861
2023-12-17T05:21:49,2420,42.8014,5.9826,13.2991,4.59914,2453.672,38.4862
2023-12-17T05:24:49,2420,42.8014,5.9826,13.2989,4.59909,2453.672,38.4860
2023-12-17T05:27:49,2420,42.8014,5.9826,13.2988,4.59911,2453.709,38.4863
2023-12-17T05:30:49,2420,42.8014,5.9826,13.2989,4.59910,2453.649,38.4860
2023-12-17T05:33:49,2420,42.8014,5.9826,13.2993,4.59914,2453.672,38.4860
2023-12-17T05:36:49,2420,42.8014,5.9826,13.2986,4.59908,2453.649,38.4861
2023-12-17T05:39:49,2420,42.8014,5.9826,13.2988,4.59915,2453.672,38.4866
2023-12-17T05:42:49,2420,42.8014,5.9826,13.2989,4.59915,2453.687,38.4865
2023-12-17T05:45:49,2420,42.8014,5.9826,13.2991,4.59909,2453.672,38.4858
2023-12-17T05:48:49,2420,42.8014,5.9826,13.2989,4.59911,2453.672,38.4862
2023-12-17T05:51:49,2420,42.8014,5.9826,13.2991,4.59913,2453.672,38.4861
2023-12-17T05:54:49,2420,42.8014,5.9826,13.2989,4.59915,2453.672,38.4865
2023-12-17T05:57:49,2420,42.8014,5.9826,13.2991,4.59909,2453.649,38.4858
2023-12-17T06:00:50,2420,42.8014,5.9826,13.2988,4.59907,2453.709,38.4859
2023-12-17T06:03:49,2420,42.8014,5.9826,13.2988,4.59911,2453.649,38.4863
2023-12-17T06:06:49,2420,42.8014,5.9826,13.2990,4.59909,2453.664,38.4859
2023-12-17T06:09:49,2420,42.8014,5.9826,13.2988,4.59912,2453.695,38.4863
2023-12-17T06:12:49,2420,42.8014,5.9826,13.2991,4.59909,2453.672,38.4858
2023-12-17T06:15:49,2420,42.8014,5.9826,13.2991,4.59913,2453.680,38.4861
2023-12-17T06:18:49,2420,42.8014,5.9826,13.2990,4.59912,2453.695,38.4861
2023-12-17T06:21:49,2420,42.8014,5.9826,13.2990,4.59913,2453.695,38.4862
2023-12-17T06:24:49,2420,42.8014,5.9826,13.2992,4.59911,2453.695,38.4859
2023-12-17T06:27:49,2420,42.8014,5.9826,13.2989,4.59911,2453.695,38.4862
2023-12-17T06:30:49,2420,42.8014,5.9826,13.2991,4.59910,2453.695,38.4858
2023-12-17T06:33:49,2420,42.8014,5.9826,13.2988,4.59909,2453.717,38.4860
2023-12-17T06:36:49,2420,42.8014,5.9826,13.2990,4.59908,2453.717,38.4857
2023-12-17T06:39:49,2420,42.8014,5.9826,13.2991,4.59911,2453.717,38.4860
2023-12-17T06:42:49,2420,42.8014,5.9826,13.2989,4.59909,2453.725,38.4859
2023-12-17T06:45:49,2420,42.8014,5.9826,13.2993,4.59911,2453.717,38.4858
2023-12-17T06:48:49,2420,42.8014,5.9826,13.2991,4.59924,2453.717,38.4871
2023-12-17T06:51:49,2420,42.8014,5.9826,13.2988,4.59907,2453.740,38.4859
2023-12-17T06:54:49,2420,42.8014,5.9826,13.3002,4.59910,2453.740,38.4847
2023-12-17T06:57:49,2420,42.8014,5.9826,13.2992,4.59911,2453.740,38.4858
2023-12-17T07:00:49,2420,42.8014,5.9826,13.3003,4.59911,2453.762,38.4847
2023-12-17T07:03:49,2420,42.8014,5.9826,13.2989,4.59911,2453.740,38.4861
2023-12-17T07:06:49,2420,42.8014,5.9826,13.2996,4.59925,2453.762,38.4868
2023-12-17T07:09:49,2420,42.8014,5.9826,13.2995,4.59937,2453.800,38.4880
2023-12-17T07:12:49,2420,42.8014,5.9826,13.2992,4.59919,2453.785,38.4865
2023-12-17T07:15:49,2420,42.8014,5.9826,13.2991,4.59912,2453.762,38.4860
2023-12-17T07:18:49,2420,42.8014,5.9826,13.3000,4.59912,2453.785,38.4851
2023-12-17T07:21:49,2420,42.8014,5.9826,13.2988,4.59917,2453.807,38.4868
2023-12-17T07:24:49,2420,42.8014,5.9826,13.2993,4.59912,2453.800,38.4858
2023-12-17T07:27:49,2420,42.8014,5.9826,13.2988,4.59909,2453.807,38.4860
2023-12-17T07:30:49,2420,42.8014,5.9826,13.2986,4.59914,2453.785,38.4866
2023-12-17T07:33:49,2420,42.8014,5.9826,13.2991,4.59916,2453.785,38.4863
2023-12-17T07:36:49,2420,42.8014,5.9826,13.2990,4.59909,2453.785,38.4858
2023-12-17T07:39:49,2420,42.8014,5.9826,13.2989,4.59909,2453.785,38.4859
2023-12-17T07:42:49,2420,42.8014,5.9826,13.2991,4.59909,2453.785,38.4857
2023-12-17T07:45:49,2420,42.8014,5.9826,13.2988,4.59920,2453.807,38.4870
2023-12-17T07:48:49,2420,42.8014,5.9826,13.2988,4.59915,2453.830,38.4866
2023-12-17T07:51:49,2420,42.8014,5.9826,13.2998,4.59911,2453.830,38.4852
2023-12-17T07:54:49,2420,42.8014,5.9826,13.2990,4.59909,2453.815,38.4858
2023-12-17T07:57:49,2420,42.8014,5.9826,13.2987,4.59911,2453.830,38.4863
2023-12-17T08:00:49,2420,42.8014,5.9826,13.2988,4.59909,2453.830,38.4860
2023-12-17T08:03:49,2420,42.8014,5.9826,13.2995,4.59915,2453.845,38.4858
2023-12-17T08:06:49,2420,42.8014,5.9826,13.2991,4.59913,2453.807,38.4860
2023-12-17T08:09:49,2420,42.8014,5.9826,13.2992,4.59913,2453.875,38.4859
2023-12-17T08:12:49,2420,42.8014,5.9826,13.2986,4.59909,2453.867,38.4862
2023-12-17T08:15:49,2420,42.8014,5.9826,13.2993,4.59909,2453.815,38.4855
2023-12-17T08:18:49,2420,42.8014,5.9826,13.3000,4.59919,2453.853,38.4858
2023-12-17T08:21:49,2420,42.8014,5.9826,13.2987,4.59908,2453.793,38.4860
2023-12-17T08:24:49,2420,42.8014,5.9826,13.2987,4.59910,2453.875,38.4862
2023-12-17T08:27:49,2420,42.8014,5.9826,13.2988,4.59911,2453.867,38.4863
2023-12-17T08:30:49,2420,42.8014,5.9826,13.2986,4.59909,2453.861,38.4862
2023-12-17T08:33:49,2420,42.8014,5.9826,13.2990,4.59910,2453.853,38.4859
2023-12-17T08:36:49,2420,42.8014,5.9826,13.2988,4.59912,2453.867,38.4863
2023-12-17T08:39:49,2420,42.8014,5.9826,13.2991,4.59911,2453.883,38.4859
2023-12-17T08:42:49,2420,42.8014,5.9826,13.2989,4.59910,2453.898,38.4859
2023-12-17T08:45:49,2420,42.8014,5.9826,13.2986,4.59907,2453.898,38.4859
2023-12-17T08:48:49,2420,42.8014,5.9826,13.2991,4.59911,2453.853,38.4859
2023-12-17T08:51:49,2420,42.8014,5.9826,13.2987,4.59909,2453.875,38.4861
2023-12-17T08:54:49,2420,42.8014,5.9826,13.2986,4.59907,2453.875,38.4860
2023-12-17T08:57:49,2420,42.8014,5.9826,13.2986,4.59908,2453.883,38.4860
2023-12-17T09:00:49,2420,42.8014,5.9826,13.2989,4.59910,2453.898,38.4859
2023-12-17T09:03:49,2420,42.8014,5.9826,13.2990,4.59908,2453.898,38.4857
2023-12-17T09:06:49,2420,42.8014,5.9826,13.2990,4.59910,2453.898,38.4859
2023-12-17T09:09:49,2420,42.8014,5.9826,13.2986,4.59911,2453.912,38.4864
2023-12-17T09:12:49,2420,42.8014,5.9826,13.2991,4.59910,2453.898,38.4858
2023-12-17T09:15:49,2420,42.8014,5.9826,13.2988,4.59908,2453.875,38.4858
2023-12-17T09:18:49,2420,42.8014,5.9826,13.2986,4.59909,2453.898,38.4861
2023-12-17T09:21:49,2420,42.8014,5.9826,13.2986,4.59911,2453.898,38.4864
2023-12-17T09:24:49,2420,42.8014,5.9826,13.2986,4.59912,2453.920,38.4864
2023-12-17T09:27:49,2420,42.8014,5.9826,13.2986,4.59909,2453.906,38.4861
2023-12-17T09:30:49,2420,42.8014,5.9826,13.2984,4.59908,2453.898,38.4863
2023-12-17T09:33:49,2420,42.8014,5.9826,13.2984,4.59906,2453.920,38.4861
2023-12-17T09:36:49,2420,42.8014,5.9826,13.2988,4.59907,2453.920,38.4858
2023-12-17T09:39:49,2420,42.8014,5.9826,13.2989,4.59915,2453.920,38.4864
2023-12-17T09:42:49,2420,42.8014,5.9826,13.2987,4.59909,2453.943,38.4861
2023-12-17T09:45:49,2420,42.8014,5.9826,13.2991,4.59910,2453.920,38.4858
2023-12-17T09:48:49,2420,42.8014,5.9826,13.2989,4.59909,2453.920,38.4858
2023-12-17T09:51:49,2420,42.8014,5.9826,13.2986,4.59906,2453.906,38.4859
2023-12-17T09:54:49,2420,42.8014,5.9826,13.2988,4.59911,2453.898,38.4862
2023-12-17T09:57:49,2420,42.8014,5.9826,13.2981,4.59908,2453.906,38.4866
2023-12-17T10:00:49,2420,42.8014,5.9826,13.2984,4.59909,2453.920,38.4863
2023-12-17T10:03:49,2420,42.8014,5.9826,13.2992,4.59917,2453.912,38.4863
2023-12-17T10:06:49,2420,42.8014,5.9826,13.2988,4.59910,2453.920,38.4860
2023-12-17T10:09:49,2420,42.8014,5.9826,13.2990,4.59909,2453.920,38.4858
2023-12-17T10:12:49,2420,42.8014,5.9826,13.2990,4.59909,2453.965,38.4858
2023-12-17T10:15:49,2420,42.8014,5.9826,13.2985,4.59909,2453.906,38.4863
2023-12-17T10:18:49,2420,42.8014,5.9826,13.2985,4.59909,2453.943,38.4863
2023-12-17T10:21:49,2420,42.8014,5.9826,13.2988,4.59910,2453.920,38.4861
2023-12-17T10:24:49,2420,42.8014,5.9826,13.2988,4.59909,2453.920,38.4860
2023-12-17T10:27:49,2420,42.8014,5.9826,13.2988,4.59912,2453.943,38.4863
2023-12-17T10:30:49,2420,42.8014,5.9826,13.2985,4.59908,2453.920,38.4862
2023-12-17T10:33:49,2420,42.8014,5.9826,13.2985,4.59909,2453.943,38.4863
2023-12-17T10:36:49,2420,42.8014,5.9826,13.2985,4.59911,2453.920,38.4865
2023-12-17T10:39:49,2420,42.8014,5.9826,13.2985,4.59911,2453.898,38.4865
2023-12-17T10:42:49,2420,42.8014,5.9826,13.2985,4.59909,2453.943,38.4863
2023-12-17T10:45:49,2420,42.8014,5.9826,13.2985,4.59912,2453.920,38.4866
2023-12-17T10:48:49,2420,42.8014,5.9826,13.2991,4.59909,2453.943,38.4856
2023-12-17T10:51:49,2420,42.8014,5.9826,13.2986,4.59906,2453.920,38.4859
2023-12-17T10:54:49,2420,42.8014,5.9826,13.2986,4.59906,2453.928,38.4859
2023-12-17T10:57:49,2420,42.8014,5.9826,13.2991,4.59909,2453.943,38.4856
2023-12-17T11:00:49,2420,42.8014,5.9826,13.2988,4.59911,2453.898,38.4862
2023-12-17T11:03:49,2420,42.8014,5.9826,13.2989,4.59908,2453.861,38.4858
2023-12-17T11:06:49,2420,42.8014,5.9826,13.2986,4.59916,2453.906,38.4868
2023-12-17T11:09:49,2420,42.8014,5.9826,13.2985,4.59908,2453.875,38.4862
2023-12-17T11:12:49,2420,42.8014,5.9826,13.2987,4.59910,2453.920,38.4862
2023-12-17T11:15:49,2420,42.8014,5.9826,13.2986,4.59907,2453.920,38.4860
2023-12-17T11:18:49,2420,42.8014,5.9826,13.2986,4.59909,2453.920,38.4861
2023-12-17T11:21:49,2420,42.8014,5.9826,13.2987,4.59913,2453.943,38.4864
2023-12-17T11:24:49,2420,42.8014,5.9826,13.2984,4.59908,2453.912,38.4863
2023-12-17T11:27:49,2420,42.8014,5.9826,13.2991,4.59909,2453.920,38.4856
2023-12-17T11:30:49,2420,42.8014,5.9826,13.2988,4.59906,2453.943,38.4857
2023-12-17T11:33:49,2420,42.8014,5.9826,13.2988,4.59908,2453.943,38.4858
2023-12-17T11:36:49,2420,42.8014,5.9826,13.2989,4.59906,2453.920,38.4856
2023-12-17T11:39:49,2420,42.8014,5.9826,13.2984,4.59909,2453.861,38.4863
2023-12-17T11:42:49,2420,42.8014,5.9826,13.2987,4.59908,2453.920,38.4859
2023-12-17T11:45:49,2420,42.8014,5.9826,13.2988,4.59909,2453.875,38.4860
2023-12-17T11:48:49,2420,42.8014,5.9826,13.2988,4.59910,2453.920,38.4861
2023-12-17T11:51:49,2420,42.8014,5.9826,13.2984,4.59908,2453.898,38.4863
2023-12-17T11:54:49,2420,42.8014,5.9826,13.2987,4.59909,2453.898,38.4860
2023-12-17T11:57:49,2420,42.8014,5.9826,13.2988,4.59911,2453.898,38.4862
2023-12-17T12:00:49,2420,42.8014,5.9826,13.2986,4.59912,2453.920,38.4865
2023-12-17T12:03:49,2420,42.8014,5.9826,13.2986,4.59910,2453.898,38.4863
2023-12-17T12:06:49,2420,42.8014,5.9826,13.2988,4.59909,2453.861,38.4860
2023-12-17T12:09:49,2420,42.8014,5.9826,13.2985,4.59907,2453.898,38.4861
2023-12-17T12:12:49,2420,42.8014,5.9826,13.2988,4.59911,2453.920,38.4862
2023-12-17T12:15:49,2420,42.8014,5.9826,13.2985,4.59912,2453.875,38.4866
2023-12-17T12:18:49,2420,42.8014,5.9826,13.2988,4.59908,2453.875,38.4859
2023-12-17T12:21:49,2420,42.8014,5.9826,13.2988,4.59909,2453.861,38.4860
2023-12-17T12:24:49,2420,42.8014,5.9826,13.2987,4.59906,2453.867,38.4858
2023-12-17T12:27:49,2420,42.8014,5.9826,13.2985,4.59906,2453.875,38.4860
2023-12-17T12:30:49,2420,42.8014,5.9826,13.2989,4.59911,2453.912,38.4860
2023-12-17T12:33:49,2420,42.8014,5.9826,13.2986,4.59905,2453.898,38.4858
2023-12-17T12:36:49,2420,42.8014,5.9826,13.2985,4.59907,2453.883,38.4861
2023-12-17T12:39:49,2420,42.8014,5.9826,13.2989,4.59909,2453.898,38.4858
2023-12-17T12:42:49,2420,42.8014,5.9826,13.2985,4.59909,2453.898,38.4863
2023-12-17T12:45:49,2420,42.8014,5.9826,13.2986,4.59905,2453.875,38.4858
2023-12-17T12:48:49,2420,42.8014,5.9826,13.2983,4.59908,2453.898,38.4864
2023-12-17T12:51:49,2420,42.8014,5.9826,13.2986,4.59906,2453.875,38.4859
2023-12-17T12:54:49,2420,42.8014,5.9826,13.2984,4.59907,2453.898,38.4862
2023-12-17T12:57:49,2420,42.8014,5.9826,13.2987,4.59906,2453.875,38.4858
2023-12-17T13:00:49,2420,42.8014,5.9826,13.2986,4.59911,2453.875,38.4864
2023-12-17T13:03:49,2420,42.8014,5.9826,13.2985,4.59909,2453.912,38.4863
2023-12-17T13:06:49,2420,42.8014,5.9826,13.2985,4.59915,2453.875,38.4868
2023-12-17T13:09:49,2420,42.8014,5.9826,13.2982,4.59909,2453.853,38.4866
2023-12-17T13:12:49,2420,42.8014,5.9826,13.2986,4.59908,2453.875,38.4860
2023-12-17T13:15:49,2420,42.8014,5.9826,13.2988,4.59910,2453.853,38.4861
2023-12-17T13:18:49,2420,42.8014,5.9826,13.2985,4.59905,2453.830,38.4859
2023-12-17T13:21:49,2420,42.8014,5.9826,13.2981,4.59915,2453.875,38.4873
2023-12-17T13:24:49,2420,42.8014,5.9826,13.2986,4.59905,2453.830,38.4858
2023-12-17T13:27:49,2420,42.8014,5.9826,13.2988,4.59905,2453.875,38.4856
2023-12-17T13:30:49,2420,42.8014,5.9826,13.2987,4.59909,2453.853,38.4860
2023-12-17T13:33:49,2420,42.8014,5.9826,13.2985,4.59908,2453.830,38.4862
2023-12-17T13:36:49,2420,42.8014,5.9826,13.2986,4.59910,2453.807,38.4863
2023-12-17T13:39:49,2420,42.8014,5.9826,13.2985,4.59905,2453.838,38.4859
2023-12-17T13:42:49,2420,42.8014,5.9826,13.2986,4.59913,2453.853,38.4865
2023-12-17T13:45:49,2420,42.8014,5.9826,13.2985,4.59907,2453.807,38.4862
2023-12-17T13:48:49,2420,42.8014,5.9826,13.2985,4.59909,2453.853,38.4863
2023-12-17T13:51:49,2420,42.8014,5.9826,13.2982,4.59905,2453.807,38.4863
2023-12-17T13:54:49,2420,42.8014,5.9826,13.2994,4.59904,2453.807,38.4849
2023-12-17T13:57:49,2420,42.8014,5.9826,13.2990,4.59917,2453.807,38.4866
2023-12-17T14:00:50,2420,42.8014,5.9826,13.2997,4.59920,2453.853,38.4861
2023-12-17T14:03:49,2420,42.8014,5.9826,13.2986,4.59920,2453.853,38.4872
2023-12-17T14:06:49,2420,42.8014,5.9826,13.3003,4.59923,2453.815,38.4858
2023-12-17T14:09:49,2420,42.8014,5.9826,13.3000,4.59909,2453.830,38.4848
2023-12-17T14:12:49,2420,42.8014,5.9826,13.2983,4.59911,2453.830,38.4867
2023-12-17T14:15:49,2420,42.8014,5.9826,13.3004,4.59917,2453.830,38.4852
2023-12-17T14:18:49,2420,42.8014,5.9826,13.2986,4.59912,2453.800,38.4865
2023-12-17T14:21:49,2420,42.8014,5.9826,13.2985,4.59915,2453.807,38.4869
2023-12-17T14:24:49,2420,42.8014,5.9826,13.2985,4.59906,2453.807,38.4860
2023-12-17T14:27:49,2420,42.8014,5.9826,13.2987,4.59914,2453.807,38.4865
2023-12-17T14:30:49,2420,42.8014,5.9826,13.2995,4.59920,2453.807,38.4864
2023-12-17T14:33:49,2420,42.8014,5.9826,13.2993,4.59915,2453.785,38.4861
2023-12-17T14:36:49,2420,42.8014,5.9826,13.2984,4.59904,2453.807,38.4859
2023-12-17T14:39:49,2420,42.8014,5.9826,13.2989,4.59914,2453.830,38.4863
2023-12-17T14:42:49,2420,42.8014,5.9826,13.2993,4.59907,2453.807,38.4853
2023-12-17T14:45:49,2420,42.8014,5.9826,13.2982,4.59908,2453.807,38.4865
2023-12-17T14:48:49,2420,42.8014,5.9826,13.2987,4.59905,2453.830,38.4857
2023-12-17T14:51:49,2420,42.8014,5.9826,13.2985,4.59906,2453.785,38.4860
2023-12-17T14:54:49,2420,42.8014,5.9826,13.2981,4.59908,2453.822,38.4866
2023-12-17T14:57:49,2420,42.8014,5.9826,13.2980,4.59908,2453.748,38.4867
2023-12-17T15:00:49,2420,42.8014,5.9826,13.2986,4.59906,2453.785,38.4859
2023-12-17T15:03:49,2420,42.8014,5.9826,13.2988,4.59916,2453.785,38.4866
2023-12-17T15:06:49,2420,42.8014,5.9826,13.2984,4.59907,2453.785,38.4862
2023-12-17T15:09:49,2420,42.8014,5.9826,13.2985,4.59905,2453.822,38.4859
2023-12-17T15:12:49,2420,42.8014,5.9826,13.2985,4.59908,2453.807,38.4862
2023-12-17T15:15:49,2420,42.8014,5.9826,13.2988,4.59906,2453.785,38.4857
2023-12-17T15:18:49,2420,42.8014,5.9826,13.2983,4.59909,2453.807,38.4865
2023-12-17T15:21:49,2420,42.8014,5.9826,13.2985,4.59906,2453.748,38.4861
2023-12-17T15:24:49,2420,42.8014,5.9826,13.2981,4.59904,2453.762,38.4863
2023-12-17T15:27:49,2420,42.8014,5.9826,13.2986,4.59906,2453.785,38.4859
2023-12-17T15:30:49,2420,42.8014,5.9826,13.2986,4.59917,2453.785,38.4870
2023-12-17T15:33:49,2420,42.8014,5.9826,13.2986,4.59909,2453.762,38.4862
2023-12-17T15:36:49,2420,42.8014,5.9826,13.2986,4.59912,2453.770,38.4865
2023-12-17T15:39:49,2420,42.8014,5.9826,13.2993,4.59914,2453.762,38.4860
2023-12-17T15:42:49,2420,42.8014,5.9826,13.2991,4.59908,2453.762,38.4856
2023-12-17T15:45:49,2420,42.8014,5.9826,13.2982,4.59912,2453.748,38.4870
2023-12-17T15:48:49,2420,42.8014,5.9826,13.2986,4.59906,2453.748,38.4859
2023-12-17T15:51:50,2420,42.8014,5.9826,13.2984,4.59908,2453.748,38.4863
2023-12-17T15:54:49,2420,42.8014,5.9826,13.2982,4.59905,2453.762,38.4862
2023-12-17T15:57:49,2420,42.8014,5.9826,13.2982,4.59906,2453.748,38.4863
2023-12-17T16:00:49,2420,42.8014,5.9826,13.2986,4.59907,2453.762,38.4861
2023-12-17T16:03:49,2420,42.8014,5.9826,13.2985,4.59906,2453.740,38.4861